www.pogodaiklimat.ru
ПОГОДА в Нэкэмте
Время
(UTC), дата
03 10.10
06 11.10
12 11.10
15 11.10
18 11.10
03 12.10
06 12.10
09 12.10
12 12.10
15 12.10
18 12.10
06 13.10
09 13.10
12 13.10
15 13.10
18 13.10
03 14.10
06 14.10
09 14.10
12 14.10
15 14.10
18 14.10
03 15.10
06 15.10
09 15.10
12 15.10
15 15.10
18 15.10
03 16.10
06 16.10
09 16.10
12 16.10
Ветер
(напр.,м/с)
Видим. Явления Облачность Т
(С)
Тd
(С)
f
(%)
Тe
(С)
Тes
(С)
Комфортность P
(гПа)
Po
(гПа)
Тmin
(С)
Tmax
(С)
R
(мм)
R24
(мм)
S
(см)
С 2 20 км дымка 4/3 700 м
[Sc Ac trans]
+12.6 +12.6 100 +12 +12 тепло 1018.2 795.7
Ю 2 15 км дымка {туман} 8/3 360 м
[Frnb Ac trans]
+15.2 +14.9 98 +15 +18 тепло 1018.0 795.5 +13.0 15
В 2 30 км 5/5 720 м
[Cu med, cong]
+23.6 +16.5 64 +27 +33 жарко 1014.7 792.9
Ю 2 20 км гроза без осадков 9/8 720 м
[Cb cap Ac trans]
+20.0 +14.4 70 +23 +23 комфорт 1013.5 792.0
штиль 0 20 км дымка {гроза} 9/6 720 м
[Cb cap Ac trans]
+16.4 +13.9 85 +16 +16 тепло 1017.3 795.0 +24.2
СЗ 2 30 км 5/3 720 м
[Sc Ci fib]
+13.2 +12.9 98 +12 +12 тепло 1015.2 793.5
Ю 2 30 км 5/1 720 м
[Cu hum Cs]
+17.4 +14.9 85 +18 +23 тепло 1016.7 794.5 +13.0
ЮВ 2 30 км 6/4 720 м
[Cu med, cong Ci fib]
+22.6 +15.0 62 +26 +37 жарко 1016.2 794.1
Ю 2 20 км гроза без осадков 8/6 720 м
[Cb cap Ac trans Ci ing]
+22.2 +13.1 56 +25 +29 комфорт 1016.1 794.0
С 2 30 км 9/5 720 м
[Cb cap Ac trans Ci fib]
+19.2 +17.1 88 +22 +22 комфорт 1014.8 793.0
ЮЗ 2 15 км гроза, ливневой дождь 10/8 700 м
[Cb cap Ac As]
+15.5 +14.7 95 +15 +15 тепло 1016.1 794.0 +23.6
С 2 20 км дымка 10/6 360 м
[Sc Ac trans]
+15.4 +15.1 98 +15 +16 тепло 1016.7 794.5 +13.7 6
Ю 2 30 км 8/4 720 м
[Cu med, cong Ac trans]
+19.4 +14.8 75 +22 +29 комфорт 1017.9 795.4
С 2 20 км гроза без осадков 10/6 700 м
[Cb cap Ac trans]
+17.2 +15.2 88 +18 +20 тепло 1015.2 793.3
С 2 100 м туман {гроза} ?/? +15.0 +15.0 100 +15 +15 тепло 1015.3 794.3
штиль 0 6000 м слаб. ливневой дождь, в посл. час гроза 10/10 90 м
[Cb cap]
+14.0 +14.0 100 +13 +13 тепло 1016.7 794.5 +22.0
штиль 0 15 км дымка 8/4 700 м
[Sc Ac trans]
+13.2 +12.9 98 +13 +13 тепло 1018.2 795.7
штиль 0 15 км дымка 10/8 700 м
[Sc Ac As]
+15.0 +14.5 97 +15 +15 тепло 1019.5 796.7 +13.2 7
С 2 30 км 8/4 700 м
[Cu Sc]
+18.5 +15.5 83 +20 +27 тепло 1019.3 796.5
В 2 30 км 6/6 700 м
[Cb calv]
+23.8 +16.4 63 +27 +32 жарко 1016.2 794.1
С 2 20 км гроза без осадков 8/8 700 м
[Cb cap Ac trans]
+19.4 +17.1 87 +22 +22 комфорт 1014.8 793.0
30 км {гроза} н/о +16.6 +16.3 98 +16 +16 тепло 1017.3 795.0 +24.2
штиль 0 30 км 5/3 720 м
[Sc Ac trans]
+11.8 +10.7 93 +11 +11 тепло 1016.7 797.5
ЮЗ 2 30 км 4/1 720 м
[Cu hum Ci sp]
+16.6 +12.1 75 +17 +22 тепло 1018.2 795.7 +11.7 2
ЮЗ 2 30 км 4/3 720 м
[Cu hum Ci fib]
+22.0 +11.4 51 +24 +37 комфорт 1017.7 795.3
Ю 2 30 км 4/4 720 м
[Cu med, cong]
+23.2 +13.7 55 +27 +34 душно 1016.1 794.0 340
З 2 30 км 3/3 720 м
[Cu med, cong Ac trans Ci fib]
+19.4 +15.2 77 +22 +22 комфорт 1014.8 793.0
С 1 30 км 1/0
[Ci fib]
+16.0 +15.2 95 +17 +17 тепло 1015.0 793.2 +24.8
С 2 20 км дымка 4/1 700 м
[Sc Ac trans Ci fib]
+13.4 +13.4 100 +13 +13 тепло 1018.0 795.5
Ю 2 30 км 1/1 750 м
[Cu hum]
+17.4 +13.3 77 +18 +24 тепло 1019.3 796.5 +13.4
ЮВ 2 30 км 6/4 750 м
[Cu med, cong Ac trans Ci fib]
+23.2 +14.8 59 +27 +37 душно 1017.5 795.1
Ю 2 30 км 5/5 700 м
[Cu med, cong]
+23.5 +13.5 53 +26 +32 жарко 1014.7 792.9
Местоположение метеостанции Нэкэмте (Эфиопия): широта 9.08 долгота 36.45 высота над уровнем моря 2080 м.
В архиве по умолчанию представлена погода в Нэкэмте за последнюю неделю. Архивные данные за месяц целиком и за предыдущие месяцы, начиная с января 2011 года, Вы можете получить, выбрав интересующий диапазон дат из раскрывающегося списка и нажав кнопку "Найти!".
*Определитесь, кто Вы:
Внимание! Время в таблицах - всемирное. Для получения местного времени необходимо прибавить поправку, которая равна 3 ч.
Смотрите также архив погоды в соседних городах и на ближайших метеорологических станциях:
Партнеры нашего сайта:      
Пояснения к столбцам:
  • Ветер - указаны скорость ветра в м/с - средняя за 10 мин, порывы в срок и между сроками (в фигурных скобках) и направление, откуда дует ветер: С - северный,
  • СВ - северо-восточный, В - восточный, ЮВ - юго-восточный, Ю - южный, ЮЗ - юго-западный, З - западный, СЗ - северо-западный.
  • Видимость - горизонтальная дальность видимости в метрах или километрах. При видимости от 1 до 10 км при отсутствии осадков обычно наблюдается дымка, при ухудшении видимости до 1 км и менее - туман. В сухую погоду видимость может ухудшаться дымом, пылью или мглою.
  • Явления - указаны атмосферные явления, наблюдавшиеся в срок или в последний час перед сроком; фигурными скобками обозначены явления, наблюдавшиеся между сроками (за 1-3 часа до срока); квадратными скобками обозначены град или гололедные отложения с указанием их диаметра в мм.
  • Облачность - указаны через наклонную черту общая и нижняя облачность в баллах и высота нижней границы облаков в метрах; квадратными скобками обозначены формы облаков: Ci - перистые, Cs - перисто-слоистые, Cc - перисто-кучевые, Ac - высококучевые, As - высокослоистые, Sc - слоисто-кучевые, Ns - слоисто-дождевые, Cu - кучевые, Cb - кучево-дождевые. Подробнее классификацию облаков см. в Атласе облаков (PDF).
  • T - Температура воздуха - температура, измеренная на высоте 2 м над землей.
  • Td - Температура точки росы - температура, при понижении до которой содержащийся в воздухе водяной пар достигнет насыщения.
  • f - Относительная влажность воздуха - влажноcть воздуха, измеренная на высоте 2 м над землей.
  • Te - Эффективная температура - температура, которую ощущает одетый по сезону человек в тени. Характеристика душности погоды. При расчете учитывается влияние влажности воздуха и скорости ветра на теплоощущения человека.
  • Tes - Эффективная температура на солнце - температура, которую ощущает человек, с поправкой на солнечный нагрев. Характеристика знойности погоды. Зависит от высоты солнца над горизонтом, облачности и скорости ветра. Ночью, в пасмурную погоду, а также при ветре 12 м/с и более поправка равна нулю.
  • P - Атмосферное давление - приведенное к уровню моря атмосферное давление.
  • Po - Атмосферное давление - измеренное на уровне метеостанции атмосферное давление.
  • Tmin - Минимальная температура - минимум температуры воздуха на высоте 2 м над землей.
  • Tmax - Максимальная температура - максимум температуры воздуха на высоте 2 м над землей.
  • R - Количество осадков - Количество выпавших осадков за период времени, мм. При наведении курсора мыши на число - период времени, за который выпало указанное количество осадков.
  • R24 - Количество осадков - Количество выпавших осадков за 24 часа, мм.
  • S - Снежный покров - Высота снежного покрова, см. При наведении курсора мыши на число - состояние снежного покрова и степень покрытия местности в баллах.